• In Hungary
  • List of Countries
  • For 7 days
  • Water Temperature
  • Satellite Maps
  • Weather Map
  • News
  • Weather Widgets
  • user-avatar
    Login

    Hourly Weather Mankulam

    Today, 11 December, Monday

    Time Temperature Precipitation Wind Pressure Humidity
    00:00 +26°C° 0 mm 2 mps 756 mmHg 90%
    01:00 +26°C° 0 mm 2 mps 755 mmHg 91%
    02:00 +25°C° 0 mm 2 mps 755 mmHg 92%
    03:00 +25°C° 0 mm 2 mps 755 mmHg 92%
    04:00 +25°C° 0 mm 2 mps 755 mmHg 92%
    05:00 +25°C° 0 mm 1 mps 755 mmHg 93%
    06:00 +26°C° 0 mm 1 mps 756 mmHg 86%
    07:00 +28°C° 0 mm 1 mps 756 mmHg 79%
    08:00 +29°C° 0 mm 1 mps 757 mmHg 72%
    09:00 +31°C° 0 mm 1 mps 756 mmHg 65%
    10:00 +32°C° 0 mm 1 mps 756 mmHg 58%
    11:00 +34°C° 0 mm 1 mps 756 mmHg 51%
    12:00 +35°C° 0 mm 2 mps 756 mmHg 53%
    13:00 +34°C° 0 mm 2 mps 755 mmHg 56%
    14:00 +34°C° 0 mm 3 mps 754 mmHg 59%
    15:00 +31°C° 0 mm 3 mps 755 mmHg 64%
    16:00 +30°C° 0 mm 3 mps 755 mmHg 69%
    17:00 +29°C° 0 mm 3 mps 755 mmHg 74%
    18:00 +29°C° 0 mm 3 mps 755 mmHg 76%
    19:00 +28°C° 0 mm 3 mps 756 mmHg 79%
    20:00 +27°C° 0 mm 3 mps 756 mmHg 81%
    21:00 +27°C° 0 mm 2 mps 756 mmHg 81%
    22:00 +26°C° 0 mm 2 mps 756 mmHg 81%
    23:00 +26°C° 0 mm 2 mps 756 mmHg 82%

    Tomorrow, 12 December, Tuesday

    Time Temperature Precipitation Wind Pressure Humidity
    00:00 +26°C° 0 mm 2 mps 756 mmHg 83%
    01:00 +26°C° 0 mm 2 mps 756 mmHg 85%
    02:00 +26°C° 0 mm 2 mps 755 mmHg 86%
    03:00 +25°C° 0 mm 2 mps 755 mmHg 87%
    04:00 +25°C° 0 mm 2 mps 755 mmHg 89%
    05:00 +25°C° 0 mm 1 mps 755 mmHg 90%
    06:00 +27°C° 0 mm 1 mps 756 mmHg 84%
    07:00 +28°C° 0 mm 1 mps 757 mmHg 79%
    08:00 +29°C° 0 mm 2 mps 757 mmHg 74%
    09:00 +31°C° 0 mm 1 mps 757 mmHg 67%
    10:00 +32°C° 0 mm 1 mps 757 mmHg 60%
    11:00 +34°C° 0 mm 1 mps 757 mmHg 54%
    12:00 +34°C° 0.1 mm 2 mps 756 mmHg 57%
    13:00 +34°C° 0.1 mm 3 mps 755 mmHg 60%
    14:00 +33°C° 0.1 mm 3 mps 754 mmHg 63%
    15:00 +31°C° 0.1 mm 3 mps 754 mmHg 67%
    16:00 +30°C° 0.1 mm 3 mps 754 mmHg 72%
    17:00 +29°C° 0.1 mm 3 mps 754 mmHg 77%
    18:00 +29°C° 0 mm 3 mps 755 mmHg 80%
    19:00 +28°C° 0 mm 3 mps 755 mmHg 84%
    20:00 +27°C° 0 mm 3 mps 756 mmHg 87%
    21:00 +27°C° 0 mm 2 mps 756 mmHg 88%
    22:00 +27°C° 0 mm 2 mps 756 mmHg 89%
    23:00 +27°C° 0 mm 2 mps 756 mmHg 90%

    Day after tomorrow, 13 December, Wednesday

    Time Temperature Precipitation Wind Pressure Humidity
    00:00 +26°C° 0 mm 2 mps 755 mmHg 91%
    01:00 +26°C° 0 mm 2 mps 755 mmHg 92%
    02:00 +26°C° 0 mm 2 mps 755 mmHg 93%
    03:00 +26°C° 0 mm 2 mps 755 mmHg 93%
    04:00 +26°C° 0 mm 2 mps 755 mmHg 94%
    05:00 +26°C° 0 mm 2 mps 755 mmHg 94%
    06:00 +27°C° 0 mm 2 mps 756 mmHg 90%
    07:00 +28°C° 0 mm 2 mps 756 mmHg 85%
    08:00 +29°C° 0 mm 2 mps 757 mmHg 81%
    09:00 +30°C° 0.1 mm 2 mps 757 mmHg 75%
    10:00 +31°C° 0.1 mm 2 mps 757 mmHg 69%
    11:00 +34°C° 0.1 mm 2 mps 756 mmHg 63%
    12:00 +33°C° 0.6 mm 3 mps 756 mmHg 67%
    13:00 +31°C° 0.6 mm 3 mps 755 mmHg 72%
    14:00 +31°C° 0.6 mm 3 mps 754 mmHg 76%
    15:00 +30°C° 0.3 mm 3 mps 754 mmHg 79%
    16:00 +29°C° 0.3 mm 3 mps 754 mmHg 83%
    17:00 +28°C° 0.3 mm 3 mps 754 mmHg 86%
    18:00 +28°C° 0 mm 3 mps 755 mmHg 87%
    19:00 +27°C° 0 mm 3 mps 755 mmHg 89%
    20:00 +27°C° 0 mm 2 mps 756 mmHg 91%
    21:00 +27°C° 0.1 mm 2 mps 756 mmHg 91%
    22:00 +27°C° 0.1 mm 2 mps 756 mmHg 91%
    23:00 +27°C° 0.1 mm 2 mps 756 mmHg 92%

    14 December, Thursday

    Time Temperature Precipitation Wind Pressure Humidity
    00:00 +26°C° 0.3 mm 2 mps 755 mmHg 92%
    01:00 +26°C° 0.3 mm 2 mps 755 mmHg 93%
    02:00 +26°C° 0.3 mm 2 mps 754 mmHg 93%
    03:00 +26°C° 0.4 mm 2 mps 754 mmHg 93%
    04:00 +26°C° 0.4 mm 2 mps 754 mmHg 93%
    05:00 +26°C° 0.4 mm 2 mps 755 mmHg 93%
    06:00 +27°C° 0.6 mm 2 mps 755 mmHg 90%
    07:00 +28°C° 0.6 mm 3 mps 756 mmHg 86%
    08:00 +29°C° 0.6 mm 3 mps 757 mmHg 82%
    09:00 +30°C° 0.3 mm 3 mps 757 mmHg 77%
    10:00 +31°C° 0.3 mm 3 mps 757 mmHg 72%
    11:00 +33°C° 0.3 mm 3 mps 756 mmHg 67%
    12:00 +31°C° 0.9 mm 3 mps 756 mmHg 70%
    13:00 +31°C° 0.9 mm 3 mps 755 mmHg 73%
    14:00 +30°C° 0.9 mm 4 mps 754 mmHg 76%
    15:00 +30°C° 0.8 mm 4 mps 754 mmHg 79%
    16:00 +29°C° 0.8 mm 4 mps 754 mmHg 82%
    17:00 +28°C° 0.8 mm 4 mps 754 mmHg 85%
    18:00 +28°C° 0.1 mm 4 mps 755 mmHg 87%
    19:00 +27°C° 0.1 mm 4 mps 756 mmHg 89%
    20:00 +27°C° 0.1 mm 4 mps 756 mmHg 91%
    21:00 +27°C° 0.1 mm 4 mps 756 mmHg 91%
    22:00 +27°C° 0.1 mm 4 mps 756 mmHg 92%
    23:00 +26°C° 0.1 mm 4 mps 756 mmHg 92%

    15 December, Friday

    Time Temperature Precipitation Wind Pressure Humidity
    00:00 +26°C° 0.5 mm 4 mps 755 mmHg 92%
    01:00 +26°C° 0.5 mm 4 mps 754 mmHg 92%
    02:00 +26°C° 0.5 mm 4 mps 754 mmHg 92%
    03:00 +26°C° 0.5 mm 4 mps 754 mmHg 92%
    04:00 +26°C° 0.5 mm 4 mps 754 mmHg 93%
    05:00 +26°C° 0.5 mm 4 mps 754 mmHg 93%
    06:00 +27°C° 0.3 mm 4 mps 755 mmHg 90%
    07:00 +28°C° 0.3 mm 4 mps 756 mmHg 87%
    08:00 +29°C° 0.3 mm 4 mps 756 mmHg 84%
    09:00 +30°C° 0.5 mm 4 mps 756 mmHg 77%
    10:00 +32°C° 0.5 mm 4 mps 756 mmHg 71%
    11:00 +33°C° 0.5 mm 4 mps 756 mmHg 64%
    12:00 +33°C° 0.5 mm 4 mps 755 mmHg 66%
    13:00 +33°C° 0.5 mm 5 mps 755 mmHg 67%
    14:00 +32°C° 0.5 mm 5 mps 754 mmHg 68%
    15:00 +30°C° 0.2 mm 5 mps 754 mmHg 74%
    16:00 +29°C° 0.2 mm 5 mps 754 mmHg 79%
    17:00 +28°C° 0.2 mm 5 mps 755 mmHg 84%
    18:00 +28°C° 0.1 mm 4 mps 755 mmHg 87%
    19:00 +27°C° 0.1 mm 4 mps 756 mmHg 89%
    20:00 +27°C° 0.1 mm 4 mps 757 mmHg 91%
    21:00 +27°C° 0.1 mm 4 mps 757 mmHg 91%
    22:00 +27°C° 0.1 mm 4 mps 757 mmHg 92%
    23:00 +26°C° 0.1 mm 4 mps 757 mmHg 92%

    16 December, Saturday

    Time Temperature Precipitation Wind Pressure Humidity
    00:00 +26°C° 0.1 mm 4 mps 756 mmHg 93%
    01:00 +26°C° 0.1 mm 4 mps 756 mmHg 93%
    02:00 +26°C° 0.1 mm 4 mps 755 mmHg 93%
    03:00 +26°C° 0.1 mm 4 mps 755 mmHg 93%
    04:00 +26°C° 0.1 mm 4 mps 755 mmHg 93%
    05:00 +26°C° 0.1 mm 4 mps 756 mmHg 93%
    06:00 +27°C° 0.1 mm 4 mps 756 mmHg 90%
    07:00 +28°C° 0.1 mm 4 mps 757 mmHg 87%
    08:00 +28°C° 0.1 mm 5 mps 757 mmHg 84%
    09:00 +29°C° 0.7 mm 5 mps 757 mmHg 83%
    10:00 +29°C° 0.7 mm 5 mps 757 mmHg 82%
    11:00 +29°C° 0.7 mm 5 mps 757 mmHg 81%
    12:00 +29°C° 0.9 mm 5 mps 756 mmHg 81%
    13:00 +29°C° 0.9 mm 5 mps 755 mmHg 81%
    14:00 +29°C° 0.9 mm 5 mps 754 mmHg 81%
    15:00 +29°C° 0.2 mm 5 mps 755 mmHg 82%
    16:00 +28°C° 0.2 mm 5 mps 755 mmHg 84%
    17:00 +28°C° 0.2 mm 5 mps 755 mmHg 85%
    18:00 +27°C° 0 mm 5 mps 756 mmHg 87%
    19:00 +27°C° 0 mm 5 mps 756 mmHg 89%
    20:00 +26°C° 0 mm 5 mps 757 mmHg 91%
    21:00 +26°C° 0.1 mm 5 mps 757 mmHg 91%
    22:00 +26°C° 0.1 mm 5 mps 757 mmHg 91%
    23:00 +26°C° 0.1 mm 5 mps 757 mmHg 91%
    Show more